Flag for Canada Weather past 2 weeks in Lethbridge, Alberta, Canada

Now
70 °F

Overcast.


Feels Like: 70 °F
Forecast: 49 / 76 °F
Wind: 9 mph from Southeast

Location: Lethbridge

Current Time: Jul 22, 2014 at 2:04:19 PM

Latest Report: Jul 22, 2014 at 11:00 AM


Visibility: 30 mi

Pressure: 30.15 "Hg

Humidity: 57%

Dew point: 54 °F

Location of LethbridgeLocation

Historic Weather in Lethbridge — Graph

°F

Lethbridge temperature yesterday

Maximum temperature yesterday: 73 °F (at 4:00 PM)
Minimum temperature yesterday: 50 °F (at 5:00 AM)
Average temperature yesterday: 60 °F

Past Weeks' High & Low Weather Summary

 TemperatureHumidityPressure
High90 °F (Jul 9, 2:00 PM)100% (Jul 12, 3:00 AM)30.27 "Hg (Jul 12, 3:00 AM)
Low46 °F (Jul 22, 6:00 AM)27% (Jul 9, 1:00 PM)29.55 "Hg (Jul 17, 6:00 PM)
Average67 °F67%29.97 "Hg
* Reported Jul 7 10:00 AM — Jul 22 10:00 AM, Lethbridge, Weather by CustomWeather, © 2014

Note: Actual official high and low records may vary slightly from our data, if they occured in-between our weather recording intervals... More about our weather records

Advertising

Lethbridge weather history for previous 24 hours

 ConditionsComfort  
Time TempWeatherWind HumidityBarometerVisibility
10:00 AM
Jul 22
68 °FPartly sunny.8 mph64%30.16 "Hg25 mi
9:00 AM63 °FMore clouds than sun.6 mph77%30.16 "Hg25 mi
8:00 AM55 °FBroken clouds.3 mph94%30.15 "Hg25 mi
7:00 AM52 °FPartly sunny.2 mph94%30.14 "Hg25 mi
6:00 AM46 °FPassing clouds.5 mph93%30.15 "Hg25 mi
5:00 AM48 °FClear.No wind100%30.15 "Hg9 mi
4:00 AM48 °FFog.6 mph100%30.14 "Hg6 mi
3:52 AM48 °FFog.5 mph100%30.14 "Hg6 mi
3:00 AM52 °FClear.5 mph94%30.13 "Hg9 mi
2:00 AM52 °FClear.2 mph94%30.13 "Hg9 mi
1:00 AM55 °FClear.No wind88%30.12 "Hg9 mi
12:00 AM57 °FPassing clouds.No wind88%30.11 "Hg9 mi
11:00 PM
Jul 21
59 °FClear.6 mph82%30.10 "Hg9 mi
10:00 PM59 °FPassing clouds.6 mph88%30.08 "Hg20 mi
9:00 PM63 °FPartly sunny.7 mph77%30.05 "Hg30 mi
8:00 PM68 °FPassing clouds.9 mph64%30.02 "Hg30 mi
7:00 PM70 °FPassing clouds.13 mph60%30.00 "Hg30 mi
6:00 PM70 °FPassing clouds.9 mph64%29.98 "Hg30 mi
5:00 PM66 °FScattered clouds.12 mph78%29.98 "Hg30 mi
4:00 PM73 °FThunderstorms. Scattered clouds.9 mph57%29.93 "Hg30 mi
3:00 PM70 °FPassing clouds.6 mph64%29.94 "Hg30 mi
2:00 PM66 °FPassing clouds.3 mph73%29.94 "Hg30 mi
Weather by CustomWeather, © 2014

See weather overviewHow to use our weather pages